Burlington, VT

11:08 PM EDT on September 16, 2019 (GMT -0400)
Burlington International

Weather History for KBTV - August, 2019

Change the Weather History Date:

Sunday, August 18, 2019

  Actual Average Record
Temperature  
Mean Temperature 74 °F 69 °F  
Max Temperature 84 °F 79 °F 93 °F (2002)
Min Temperature 64 °F 59 °F 40 °F (1918)
Degree Days  
Heating Degree Days 0 1  
Month to date heating degree days 0 14  
Since 1 June heating degree days 50 100  
Since 1 July heating degree days 0 27  
Cooling Degree Days 9 5  
Month to date cooling degree days 119 96  
Year to date cooling degree days 527 399  
Since 1 June cooling degree days 522 380  
Growing Degree Days 24 (Base 50)    
Moisture  
Dew Point 64 °F    
Average Humidity 72    
Maximum Humidity 93    
Minimum Humidity 51    
Precipitation  
Precipitation 0.00 in 0.14 in 1.59 in (1973)
Month to date precipitation 1.64 2.43  
Year to date precipitation 25.16 22.59  
Snow  
Snow 0.00 in 0.00 in 0.00 in (2002)
Month to date snowfall 0.0 0.0  
Since 1 June snowfall 0.0 0.0  
Since 1 July snowfall 0.0 0.0  
Snow Depth 0.00 in    
Sea Level Pressure  
Sea Level Pressure 29.97 in    
Wind  
Wind Speed 7 mph (South)    
Max Wind Speed 15 mph    
Max Gust Speed 19 mph    
Visibility 10 miles    
Events      
T = Trace of Precipitation, MM = Missing Value Source: NWS Daily Summary

Daily Weather History Graph

Daily Weather History Graph

Search for Another Location

Airport or City:

Astronomy

Aug. 18, 2019 Rise Set
Actual Time 5:58 AM EDT 7:53 PM EDT
Civil Twilight 5:27 AM EDT 8:24 PM EDT
Nautical Twilight 4:48 AM EDT 9:02 PM EDT
Astronomical Twilight 4:07 AM EDT 9:44 PM EDT
Moon 9:40 PM EDT (8/18) 8:46 AM EDT (8/18)
Length of Visible Light 14h 57m
Length of Day
13h 54m
Waning Gibbous, 91% of the Moon is Illuminated
Aug 18
Waning Gibbous
Aug 23
Last Quarter
Aug 30
New
Sep 5
First Quarter
Sep 14
Full

Hourly Weather History & Observations

Time (EDT) Temp. Heat Index Dew Point Humidity Pressure Visibility Wind Dir Wind Speed Gust Speed Precip Events Conditions
12:54 AM 66.0 °F - 63.0 °F 90% 29.98 in 10.0 mi South 4.6 mph - N/A   Scattered Clouds
1:54 AM 66.9 °F - 63.0 °F 87% 29.97 in 10.0 mi SSW 6.9 mph - N/A   Clear
2:52 AM 66.2 °F - 62.6 °F 88% 29.98 in 10.0 mi SSW 5.8 mph - N/A   Scattered Clouds
2:54 AM 66.9 °F - 63.0 °F 87% 29.98 in 10.0 mi South 6.9 mph - N/A   Scattered Clouds
3:01 AM 66.9 °F - 63.0 °F 87% 29.98 in 10.0 mi South 5.8 mph - N/A   Mostly Cloudy
3:51 AM 66.2 °F - 62.6 °F 88% 29.98 in 10.0 mi SW 6.9 mph - N/A   Scattered Clouds
3:54 AM 66.0 °F - 63.0 °F 90% 29.98 in 10.0 mi SW 6.9 mph - N/A   Partly Cloudy
4:54 AM 64.9 °F - 63.0 °F 93% 29.99 in 10.0 mi South 3.5 mph - N/A   Partly Cloudy
5:37 AM 64.9 °F - 62.1 °F 90% 29.99 in 10.0 mi Calm Calm - N/A   Mostly Cloudy
5:54 AM 64.0 °F - 62.1 °F 93% 29.99 in 10.0 mi Calm Calm - N/A   Mostly Cloudy
6:06 AM 64.0 °F - 62.1 °F 93% 29.99 in 10.0 mi SSE 4.6 mph - N/A   Scattered Clouds
6:54 AM 64.9 °F - 62.1 °F 90% 30.00 in 10.0 mi Calm Calm - N/A   Partly Cloudy
7:36 AM 66.9 °F - 64.0 °F 90% 30.02 in 10.0 mi SSE 4.6 mph - N/A   Mostly Cloudy
7:39 AM 66.9 °F - 64.0 °F 90% 30.01 in 10.0 mi South 5.8 mph - N/A   Mostly Cloudy
7:52 AM 66.2 °F - 64.4 °F 94% 30.02 in 10.0 mi South 5.8 mph - N/A   Mostly Cloudy
7:54 AM 66.9 °F - 64.0 °F 90% 30.02 in 10.0 mi South 5.8 mph - N/A   Mostly Cloudy
8:07 AM 66.9 °F - 63.0 °F 87% 30.02 in 10.0 mi South 5.8 mph - N/A   Mostly Cloudy
8:52 AM 69.8 °F - 64.4 °F 83% 30.01 in 10.0 mi SSE 8.1 mph - N/A   Mostly Cloudy
8:54 AM 69.1 °F - 64.0 °F 84% 30.01 in 10.0 mi South 6.9 mph - N/A   Mostly Cloudy
9:47 AM 73.0 °F - 64.9 °F 76% 30.02 in 10.0 mi South 6.9 mph - N/A   Mostly Cloudy
10:49 AM 73.4 °F - 64.4 °F 73% 30.02 in 10.0 mi SSW 9.2 mph 18.4 mph N/A   Mostly Cloudy
10:54 AM 75.0 °F - 64.9 °F 71% 30.02 in 10.0 mi SSW 9.2 mph - N/A   Mostly Cloudy
11:54 AM 75.0 °F - 64.9 °F 71% 30.00 in 10.0 mi SSW 9.2 mph - N/A   Mostly Cloudy
12:17 PM 77.0 °F - 66.0 °F 69% 29.98 in 10.0 mi South 9.2 mph - N/A   Scattered Clouds
12:54 PM 78.1 °F - 66.0 °F 66% 29.98 in 10.0 mi SSW 6.9 mph - N/A   Scattered Clouds
1:54 PM 81.0 °F 83.0 °F 66.0 °F 60% 29.99 in 10.0 mi SSW 8.1 mph 17.3 mph N/A   Partly Cloudy
2:54 PM 82.0 °F 84.1 °F 66.0 °F 58% 29.97 in 10.0 mi South 10.4 mph - N/A   Mostly Cloudy
3:54 PM 82.9 °F 84.4 °F 64.0 °F 53% 29.95 in 10.0 mi South 12.7 mph - N/A   Mostly Cloudy
4:54 PM 82.9 °F 84.0 °F 63.0 °F 51% 29.95 in 10.0 mi South 10.4 mph - N/A   Overcast
5:54 PM 81.0 °F 82.5 °F 64.0 °F 56% 29.92 in 10.0 mi SSE 6.9 mph - N/A   Mostly Cloudy
6:54 PM 80.1 °F 81.9 °F 64.9 °F 60% 29.93 in 10.0 mi South 5.8 mph - N/A   Mostly Cloudy
7:54 PM 78.1 °F - 63.0 °F 60% 29.90 in 10.0 mi ESE 4.6 mph - N/A   Mostly Cloudy
8:54 PM 77.0 °F - 63.0 °F 62% 29.91 in 10.0 mi ESE 3.5 mph - N/A   Mostly Cloudy
9:54 PM 75.9 °F - 64.0 °F 67% 29.91 in 10.0 mi Calm Calm - N/A   Overcast
10:54 PM 75.0 °F - 64.9 °F 71% 29.90 in 10.0 mi South 6.9 mph - N/A   Overcast
11:54 PM 75.0 °F - 66.9 °F 76% 29.88 in 10.0 mi South 11.5 mph - N/A   Overcast